Flint, MI

9:10 PM EST on February 06, 2016 (GMT -0500)
Bishop International

Weather History for KFNT - August, 2012

Change the Weather History Date:

Thursday, August 16, 2012

  Actual Average Record
Temperature  
Mean Temperature 70 °F 69 °F  
Max Temperature 80 °F 80 °F 95 °F (1922)
Min Temperature 59 °F 58 °F 43 °F (1979)
Degree Days  
Heating Degree Days 0 1  
Month to date heating degree days 3 15  
Since 1 June heating degree days 51 96  
Since 1 July heating degree days 3 30  
Cooling Degree Days 5 5  
Month to date cooling degree days 91 85  
Year to date cooling degree days 715 416  
Since 1 June cooling degree days 627 384  
Growing Degree Days 20 (Base 50)    
Moisture  
Dew Point 62 °F    
Average Humidity 72    
Maximum Humidity 90    
Minimum Humidity 54    
Precipitation  
Precipitation 0.05 in 0.10 in 4.45 in (1968)
Month to date precipitation 2.72 1.67  
Year to date precipitation 21.28 19.05  
Snow  
Snow 0.00 in 0.00 in 0.00 in ()
Month to date snowfall 0.0 0.0  
Since 1 June snowfall 0.0 0.0  
Since 1 July snowfall 0.0 0.0  
Snow Depth 0.00 in    
Sea Level Pressure  
Sea Level Pressure 29.84 in    
Wind  
Wind Speed 9 mph (SW)    
Max Wind Speed 21 mph    
Max Gust Speed 30 mph    
Visibility 10 miles    
Events Rain    
T = Trace of Precipitation, MM = Missing Value Source: NWS Daily Summary

Daily Weather History Graph

Daily Weather History Graph

Search for Another Location

Airport or City:

Trip Planner

Search our weather history database for the weather conditions in past years. The results will help you decide how hot, cold, wet, or windy it might be!

Date:

Astronomy

Aug. 16, 2012 Rise Set
Actual Time 6:42 AM EDT 8:34 PM EDT
Civil Twilight 6:12 AM EDT 9:05 PM EDT
Nautical Twilight 5:34 AM EDT 9:42 PM EDT
Astronomical Twilight 4:54 AM EDT 10:22 PM EDT
Moon 5:40 AM EDT (8/16) 7:42 PM EDT (8/16)
Length of Visible Light 14h 53m
Length of Day
13h 52m
Waning Crescent, 1% of the Moon is Illuminated
Aug 16
Waning Crescent
Aug 17
New
Aug 24
First Quarter
Aug 31
Full
Sep 8
Last Quarter

Hourly Weather History & Observations

Time (EDT) Temp. Heat Index Dew Point Humidity Pressure Visibility Wind Dir Wind Speed Gust Speed Precip Events Conditions
12:53 AM 61.0 °F - 57.9 °F 90% 29.95 in 10.0 mi Calm Calm - N/A   Clear
1:53 AM 60.8 °F - 57.2 °F 88% 29.96 in 10.0 mi Calm Calm - N/A   Clear
2:53 AM 64.9 °F - 61.0 °F 87% 29.94 in 10.0 mi South 4.6 mph - N/A   Clear
3:53 AM 63.0 °F - 59.0 °F 87% 29.94 in 8.0 mi South 3.5 mph - N/A   Mostly Cloudy
4:53 AM 66.0 °F - 61.0 °F 84% 29.94 in 10.0 mi SSW 3.5 mph - N/A   Mostly Cloudy
5:53 AM 66.0 °F - 61.0 °F 84% 29.92 in 10.0 mi South 4.6 mph - N/A   Scattered Clouds
6:53 AM 64.9 °F - 60.1 °F 84% 29.91 in 10.0 mi South 6.9 mph - N/A   Clear
7:53 AM 69.1 °F - 61.0 °F 75% 29.89 in 10.0 mi South 8.1 mph - N/A   Clear
8:53 AM 71.1 °F - 62.1 °F 73% 29.89 in 10.0 mi SSW 5.8 mph - N/A   Clear
9:53 AM 75.0 °F - 61.0 °F 62% 29.89 in 10.0 mi SSW 8.1 mph - N/A   Scattered Clouds
10:53 AM 78.1 °F - 61.0 °F 56% 29.87 in 10.0 mi SSW 10.4 mph 17.3 mph N/A   Clear
11:53 AM 80.1 °F 81.2 °F 62.1 °F 54% 29.87 in 10.0 mi SSW 12.7 mph - N/A   Scattered Clouds
12:53 PM 78.1 °F - 61.0 °F 56% 29.88 in 10.0 mi WSW 15.0 mph 23.0 mph N/A   Mostly Cloudy
1:53 PM 75.0 °F - 61.0 °F 62% 29.87 in 10.0 mi SSW 8.1 mph - 0.00 in   Mostly Cloudy
2:53 PM 73.9 °F - 63.0 °F 68% 29.78 in 10.0 mi South 9.2 mph - 0.00 in   Mostly Cloudy
3:53 PM 77.0 °F - 62.1 °F 60% 29.77 in 10.0 mi SSW 17.3 mph 26.5 mph 0.00 in   Clear
4:53 PM 78.1 °F - 63.0 °F 60% 29.76 in 10.0 mi SW 11.5 mph 20.7 mph N/A   Clear
5:53 PM 77.0 °F - 64.0 °F 64% 29.75 in 10.0 mi SSW 10.4 mph - N/A   Clear
6:53 PM 75.0 °F - 62.1 °F 64% 29.74 in 10.0 mi WSW 13.8 mph 19.6 mph N/A   Scattered Clouds
7:53 PM 73.9 °F - 62.1 °F 66% 29.74 in 10.0 mi WSW 10.4 mph - N/A   Overcast
8:53 PM 72.0 °F - 63.0 °F 73% 29.74 in 10.0 mi SW 8.1 mph - N/A   Scattered Clouds
9:51 PM 71.6 °F - 62.6 °F 73% 29.77 in 10.0 mi West 13.8 mph 21.9 mph N/A   Overcast
9:53 PM 72.0 °F - 63.0 °F 73% 29.75 in 10.0 mi West 12.7 mph 21.9 mph N/A   Overcast
10:06 PM 69.8 °F - 64.4 °F 83% 29.78 in 10.0 mi WNW 13.8 mph 23.0 mph N/A   Overcast
10:22 PM 69.8 °F - 64.4 °F 83% 29.79 in 10.0 mi West 10.4 mph - 0.00 in Rain Light Rain
10:39 PM 68.0 °F - 64.4 °F 88% 29.80 in 9.0 mi West 13.8 mph - 0.00 in Rain Light Rain
10:49 PM 66.2 °F - 62.6 °F 88% 29.81 in 5.0 mi West 11.5 mph - 0.01 in Rain Rain
10:53 PM 66.9 °F - 63.0 °F 87% 29.80 in 3.0 mi WNW 9.2 mph 18.4 mph 0.02 in Rain Rain
11:06 PM 66.2 °F - 62.6 °F 88% 29.81 in 8.0 mi West 6.9 mph - 0.02 in Rain Light Rain
11:53 PM 66.0 °F - 63.0 °F 90% 29.83 in 10.0 mi WSW 6.9 mph - 0.03 in Rain Light Rain